CDT,Max TemperatureF,Mean TemperatureF,Min TemperatureF,Max Dew PointF,MeanDew PointF,Min DewpointF,Max Humidity, Mean Humidity, Min Humidity, Max Sea Level PressureIn, Mean Sea Level PressureIn, Min Sea Level PressureIn, Max VisibilityMiles, Mean VisibilityMiles, Min VisibilityMiles, Max Wind SpeedMPH, Mean Wind SpeedMPH, Max Gust SpeedMPH,PrecipitationIn, CloudCover, Events, WindDirDegrees
2013-10-1,75,61,47,51,42,33,86,55,23,30.00,29.93,29.70,10,10,7,21,5,25,0.00,0,,12
2013-10-2,81,64,47,64,56,44,97,76,54,29.95,29.86,29.76,10,10,10,16,4,23,0.03,1,Thunderstorm,189
2013-10-3,61,57,52,59,55,51,100,94,87,29.83,29.80,29.77,10,10,5,16,7,22,0.01,7,Rain,42
2013-10-4,77,58,39,64,50,29,100,77,54,29.90,29.72,29.57,10,9,2,31,17,38,0.00,6,,142
2013-10-5,43,40,37,34,31,27,85,72,59,29.93,29.90,29.86,10,10,10,31,24,44,T,8,Rain,283
2013-10-6,64,50,35,38,33,25,92,58,23,30.12,30.00,29.90,10,10,10,26,15,36,T,4,Rain,318
2013-10-7,76,53,30,44,39,31,96,62,27,30.11,30.03,29.91,10,10,10,14,5,18,0.00,0,,193
2013-10-8,80,66,51,44,40,38,63,42,21,29.89,29.81,29.73,10,10,10,25,13,35,0.00,0,,176
2013-10-9,77,59,41,50,46,39,93,65,36,29.89,29.85,29.81,10,10,2,20,8,25,0.00,0,,134
2013-10-10,77,63,49,56,52,47,93,68,43,29.88,29.77,29.61,10,10,7,29,12,39,T,0,,143
2013-10-11,65,53,40,55,48,39,89,69,48,29.95,29.64,29.50,10,10,10,29,17,40,0.05,3,Rain,217
2013-10-12,63,47,31,38,33,29,92,60,27,30.31,30.16,29.98,10,10,8,20,6,32,0.00,0,,296
2013-10-13,67,48,28,44,33,26,92,59,26,30.40,30.31,30.22,10,10,8,22,8,32,0.19,2,Rain-Thunderstorm,146
2013-10-14,56,50,44,54,47,38,93,85,76,30.23,29.86,29.64,10,6,1,31,13,41,1.23,8,Rain-Thunderstorm,125
2013-10-15,45,42,39,37,34,31,79,72,65,30.19,30.06,29.88,10,10,10,32,20,45,0.00,7,,310
2013-10-16,56,45,33,35,33,30,89,64,38,30.17,30.07,29.97,10,10,10,14,6,17,0.00,3,,276
2013-10-17,49,38,27,38,31,25,92,73,53,30.15,30.04,29.94,10,10,10,25,11,36,0.00,4,,316
2013-10-18,51,37,23,31,26,21,92,64,35,30.19,30.13,30.05,10,10,10,15,6,18,0.00,3,,290
2013-10-19,63,47,30,37,32,27,85,60,34,30.02,29.90,29.81,10,10,10,28,7,31,0.00,2,,274
2013-10-20,62,47,31,40,34,29,92,66,39,30.09,29.88,29.75,10,10,10,25,10,35,T,3,,314
2013-10-21,59,43,26,40,32,25,100,68,36,30.12,30.05,29.95,10,10,10,15,4,21,0.02,4,Rain,285
2013-10-22,56,44,32,43,38,31,92,69,46,30.15,30.04,29.94,10,10,10,28,11,32,T,3,Rain,309
2013-10-23,62,49,36,40,36,34,92,69,46,30.25,30.12,30.01,10,10,10,24,10,31,0.00,5,,316
2013-10-24,44,39,33,36,30,24,85,67,49,30.44,30.36,30.24,10,10,9,15,5,21,0.00,7,,328
2013-10-25,60,46,32,38,34,28,85,64,43,30.37,30.21,30.06,10,10,10,25,9,32,0.00,1,,190
2013-10-26,56,42,27,36,29,21,92,59,26,30.31,30.21,30.09,10,10,8,21,8,26,0.00,0,,323
2013-10-27,72,48,24,41,32,21,92,61,29,30.13,29.93,29.81,10,10,10,15,4,20,0.00,0,,67
2013-10-28,49,42,34,35,33,29,85,71,56,30.22,30.15,30.01,10,10,10,22,13,26,T,4,Rain,47
2013-10-29,41,38,35,37,36,34,100,90,79,30.16,30.07,29.98,10,4,1,13,9,17,0.02,8,Rain-Thunderstorm,9
2013-10-30,47,37,26,40,35,28,100,88,76,30.07,29.90,29.80,10,9,3,13,4,15,0.07,6,Rain,291
2013-10-31,57,41,25,37,29,23,100,69,38,29.80,29.68,29.58,10,6,0,29,10,38,0.00,0,Fog-Rain,305